Location: Izdebno
(52.6670°N, 16.2170°E)
Time: 05:39:55
(UTC+02:00)

A-11 Canister half - Pass Details

Date: 09 February 2023
Orbit: 1526 x 1682 km, 47.3° (Epoch: 25 March)

Event Time Altitude Azimuth Distance (km) Brightness Sun altitude
Rises 07:50:06 0° 270° (W) 4,678 11.0 2.7°
Reaches altitude 10° 07:53:10 10° 267° (W) 3,698 10.5 3.1°
Maximum altitude 08:02:16 61° 190° (S) 1,716 9.6 4.3°
Drops below altitude 10° 08:11:33 10° 114° (ESE) 3,770 13.4 5.5°
Sets 08:14:42 0° 111° (ESE) 4,774 13.6 5.9°
